TimeCDT,TemperatureF,Dew PointF,Humidity,Sea Level PressureIn,VisibilityMPH,Wind Direction,Wind SpeedMPH,Gust SpeedMPH,PrecipitationIn,Events,Conditions,WindDirDegrees,DateUTC
12:52 AM,39.0,37.9,96,30.10,8.0,North,10.4,-,N/A,,Overcast,350,2012-11-01 05:52:00
1:52 AM,39.0,37.9,96,30.10,6.0,North,5.8,-,N/A,,Overcast,360,2012-11-01 06:52:00
2:52 AM,39.0,37.9,96,30.09,5.0,North,6.9,-,N/A,,Overcast,350,2012-11-01 07:52:00
3:52 AM,39.0,37.9,96,30.09,7.0,North,8.1,-,N/A,,Overcast,10,2012-11-01 08:52:00
4:52 AM,39.0,37.0,93,30.09,10.0,ENE,6.9,-,N/A,,Unknown,60,2012-11-01 09:52:00
5:19 AM,37.4,35.6,93,30.07,10.0,ENE,6.9,-,N/A,,Overcast,70,2012-11-01 10:19:00
5:52 AM,37.0,35.1,93,30.09,10.0,ENE,8.1,-,N/A,,Overcast,60,2012-11-01 10:52:00
6:52 AM,36.0,34.0,93,30.11,10.0,East,6.9,-,N/A,,Overcast,100,2012-11-01 11:52:00
7:52 AM,36.0,32.0,86,30.11,10.0,ENE,6.9,-,N/A,,Overcast,60,2012-11-01 12:52:00
8:52 AM,36.0,32.0,86,30.13,10.0,East,5.8,-,N/A,,Overcast,90,2012-11-01 13:52:00
9:26 AM,33.8,26.6,75,30.09,10.0,East,12.7,-,N/A,,Overcast,80,2012-11-01 14:26:00
9:52 AM,33.1,27.0,78,30.14,10.0,East,12.7,-,N/A,,Overcast,80,2012-11-01 14:52:00
10:43 AM,33.8,26.6,75,30.08,10.0,East,13.8,-,N/A,,Scattered Clouds,80,2012-11-01 15:43:00
10:52 AM,34.0,26.1,73,30.13,10.0,East,13.8,-,N/A,,Clear,90,2012-11-01 15:52:00
11:52 AM,35.1,25.0,67,30.12,10.0,East,12.7,-,N/A,,Clear,90,2012-11-01 16:52:00
12:52 PM,39.0,25.0,57,30.08,10.0,East,10.4,-,N/A,,Clear,90,2012-11-01 17:52:00
1:52 PM,39.9,25.0,55,30.05,10.0,ESE,10.4,16.1,N/A,,Clear,120,2012-11-01 18:52:00
2:52 PM,42.1,25.0,51,30.02,10.0,ESE,10.4,-,N/A,,Clear,110,2012-11-01 19:52:00
3:52 PM,42.1,24.1,49,30.01,10.0,ESE,11.5,-,N/A,,Clear,110,2012-11-01 20:52:00
4:52 PM,42.1,24.1,49,29.99,10.0,ESE,16.1,-,N/A,,Clear,110,2012-11-01 21:52:00
5:52 PM,39.9,23.0,51,29.99,10.0,East,11.5,-,N/A,,Clear,100,2012-11-01 22:52:00
6:52 PM,37.0,23.0,57,29.99,10.0,East,11.5,-,N/A,,Clear,100,2012-11-01 23:52:00
7:52 PM,35.1,21.9,59,30.01,10.0,East,11.5,-,N/A,,Clear,90,2012-11-02 00:52:00
8:52 PM,33.1,23.0,66,29.99,10.0,East,13.8,19.6,N/A,,Clear,100,2012-11-02 01:52:00
9:52 PM,30.9,21.9,69,30.02,10.0,East,12.7,19.6,N/A,,Clear,100,2012-11-02 02:52:00
10:52 PM,28.9,21.0,72,30.03,8.0,East,12.7,20.7,N/A,,Clear,100,2012-11-02 03:52:00
11:52 PM,28.0,21.0,75,30.02,10.0,East,11.5,-,N/A,,Clear,90,2012-11-02 04:52:00